Temperature
12 12 12 13 12 12 12 12 12 12 11 11 11 11 11 11 11 11 11 11 11 11 11 11 11 11 11 11 11 11 11 11 10 11 11 11 10 10 10 10 10 11 11
12 12 12 12 12 12 12 12 11 11 11 11 11 11 11 11 11 11 11 11 11 11 11 10 10 10 10 10 10 10 10 10 10 10 10 10 10 10 10 10 10 10 10
12 12 12 12 12 11 11 11 11 11 11 11 10 11 10 10 10 10 10 10 10 10 10 10 10 10 10 10 10 10 9 9 9 9 9 9 9 9 9 9 9 9 9
11 11 11 11 11 11 11 11 11 11 10 10 10 10 10 10 10 10 10 10 10 10 10 10 10 10 10 9 9 9 9 9 9 9 9 9 9 9 9 9 9 9 9
11 11 11 11 11 11 11 11 10 10 10 10 10 10 10 10 10 9 9 10 10 10 9 9 9 9 9 9 9 9 9 9 9 9 9 8 8 8 8 8 8 8 8
10 10 10 10 10 10 10 10 10 10 10 10 9 9 9 9 9 9 9 9 9 9 9 9 9 9 9 9 9 9 8 8 8 8 8 8 8 8 7 7 8 8 8
10 10 10 10 10 10 10 10 10 10 9 9 9 9 9 9 9 9 9 9 9 9 9 9 9 8 8 8 8 8 8 8 8 8 7 7 7 7 7 7 7 7 7
9 9 9 10 10 9 9 9 9 9 9 9 9 8 8 8 8 9 9 9 8 8 8 8 8 8 8 8 8 8 8 8 7 7 7 7 7 6 6 6 6 6 7
9 9 9 9 9 9 9 9 9 9 9 9 9 8 8 9 8 8 8 8 8 8 8 8 8 8 8 8 7 7 7 7 7 7 7 6 6 6 6 6 6 6 6
9 9 9 9 9 9 9 9 9 8 8 8 8 8 8 8 8 7 7 8 8 8 7 7 7 7 7 7 7 7 7 7 7 7 6 6 5 5 5 5 5 5 5
9 9 9 9 8 8 8 8 8 8 8 8 8 8 8 8 7 7 7 6 7 7 7 7 7 7 7 7 7 7 6 6 6 6 6 5 5 5 5 5 5 5 5
9 8 8 8 8 8 8 8 8 8 8 8 7 7 7 7 7 7 6 6 6 6 7 7 7 6 6 6 6 6 6 6 6 6 5 5 5 5 5 4 4 4 4
8 8 8 8 8 8 8 8 8 8 7 7 7 7 7 7 7 7 6 5 5 5 6 6 6 6 6 6 6 6 6 5 5 5 5 5 5 4 4 4 4 4 4
8 8 8 8 7 7 7 7 7 7 7 7 7 7 6 6 6 6 6 5 5 5 5 5 5 5 5 5 5 5 5 5 5 5 4 4 4 4 4 4 4 4 4
7 7 7 7 7 7 7 7 7 6 6 6 6 6 6 6 6 6 6 5 5 4 5 5 5 5 5 5 5 4 4 4 4 4 4 4 4 4 4 3 3 3 3
7 7 7 7 6 6 6 6 6 6 6 6 6 6 5 5 5 5 5 5 5 4 4 4 4 4 4 4 4 4 4 4 4 4 4 3 3 3 3 3 3 3 3
7 6 6 6 6 6 6 6 6 6 6 6 6 5 5 5 5 5 5 5 4 4 4 4 4 4 4 4 4 4 4 3 3 3 3 3 3 3 3 3 2 2 2
6 6 6 6 6 6 6 6 6 6 5 5 5 5 5 5 4 4 4 4 4 4 3 3 3 3 3 3 3 3 3 3 3 3 3 2 2 2 2 2 2 2 2
6 6 6 5 5 5 5 5 5 5 5 5 5 4 4 4 4 4 4 4 3 3 3 3 3 3 2 2 2 2 2 2 2 2 2 2 2 2 2 2 2 1 1
5 5 5 5 5 5 5 5 5 5 5 4 4 4 4 4 4 3 3 3 3 3 2 2 2 2 2 2 1 1 1 1 1 1 1 1 1 1 1 1 1 1 1
5 5 5 5 5 4 5 4 4 4 4 4 4 4 4 4 3 3 3 3 2 2 2 2 1 1 1 1 1 0 0 0 0 0 0 0 0 0 0 0 0 0 0
5 4 4 4 4 4 4 4 4 4 4 4 3 3 3 3 3 3 3 2 2 2 1 1 1 1 0 0 0 -0 -1 -1 -1 -0 -0 -0 -0 -0 -0 -0 -0 -0 -0
4 4 4 4 4 4 4 4 3 3 3 3 3 3 3 3 2 2 2 2 1 1 1 1 0 0 -0 -0 -0 -1 -1 -1 -1 -1 -1 -1 -1 -1 -1 -1 -1 -1 -1
4 4 4 4 4 3 3 3 3 3 3 2 2 2 2 2 2 2 1 1 1 1 1 0 0 -0 -0 -1 -1 -1 -1 -2 -2 -2 -2 -2 -2 -2 -2 -2 -1 -1 -2
3 3 3 3 3 3 3 3 3 2 2 2 2 2 2 2 1 1 1 0 0 0 -0 -0 -0 -1 -1 -1 -1 -2 -2 -2 -3 -2 -3 -3 -3 -3 -2 -2 -2 -2 -2
3 3 3 3 3 3 3 2 2 2 2 2 2 1 1 1 1 0 0 -0 -0 -0 -1 -1 -1 -1 -1 -1 -2 -2 -2 -3 -3 -3 -3 -4 -4 -4 -4 -3 -3 -3 -3
Wind_Speed
3 3 3 3 3 3 4 4 4 5 5 5 4 4 4 4 4 4 5 8 8 7 7 7 7 7 7 7 8 8 8 8 8 8 8 9 8 8 9 8 8 8 8
4 3 3 3 3 3 3 4 5 4 4 4 4 4 4 4 3 3 4 6 8 8 7 7 8 7 7 7 7 7 7 7 7 7 8 8 8 8 8 9 9 9 8
5 4 3 3 3 3 3 4 4 4 3 4 4 3 3 3 3 3 3 3 5 8 8 7 7 6 6 6 6 6 6 6 7 7 7 7 7 8 8 8 9 9 8
5 4 3 3 3 3 3 3 3 4 3 3 3 2 2 2 3 3 3 3 3 3 6 7 6 6 5 5 5 5 5 6 6 6 6 6 7 7 7 8 9 9 9
5 4 3 3 4 3 3 3 3 3 3 3 2 2 2 2 2 3 3 3 3 3 3 5 5 5 5 4 4 3 3 4 4 5 5 5 6 7 7 8 8 8 9
5 4 3 4 4 3 3 3 3 3 3 3 3 2 1 2 2 2 2 2 3 2 2 2 1 3 4 4 3 3 3 3 3 4 4 5 5 6 7 8 8 8 9
4 4 3 4 3 3 3 4 3 4 3 3 3 2 2 2 3 2 2 2 2 2 1 0 0 1 1 2 2 3 3 3 4 4 4 5 5 6 7 8 8 8 9
4 4 4 3 3 3 4 4 3 3 2 3 2 2 2 3 3 3 3 3 2 2 1 1 1 1 1 1 1 2 3 4 4 4 5 5 5 6 7 8 9 9 9
4 4 4 3 3 4 4 4 4 4 3 3 2 2 2 2 2 3 4 3 3 2 2 2 2 2 2 2 2 1 2 4 5 5 6 6 6 7 8 8 9 10 10
3 4 4 4 4 3 4 4 4 3 4 3 2 2 2 1 2 2 3 3 3 3 3 2 2 3 3 2 2 2 3 4 5 6 6 7 7 7 8 9 9 10 10
3 3 4 4 4 3 4 4 4 3 3 4 3 2 2 1 3 3 3 3 2 2 2 3 3 3 3 3 3 2 3 5 6 7 7 8 8 8 9 9 10 10 10
3 4 4 4 4 3 4 4 4 5 4 4 4 3 3 2 3 3 3 4 3 2 3 3 3 3 3 3 3 3 4 5 6 7 8 8 8 9 10 10 11 11 11
3 4 4 4 4 4 4 4 5 5 5 5 5 4 3 3 2 3 3 3 3 3 3 3 3 3 3 4 4 4 5 6 7 8 9 9 9 9 10 11 12 12 12
4 4 4 4 4 4 5 5 4 5 5 5 5 5 4 3 3 3 3 3 3 3 4 4 3 4 4 4 4 5 6 6 7 8 9 10 10 10 11 11 12 12 13
3 4 5 5 5 5 5 5 5 5 5 5 5 6 5 4 4 3 4 4 4 4 5 4 3 3 4 4 4 6 7 7 8 9 10 10 11 11 12 12 13 13 13
4 4 5 5 5 5 5 5 5 5 6 6 5 6 5 4 4 4 5 5 5 5 5 4 4 4 4 5 6 7 7 8 9 9 10 11 11 12 12 13 14 14 14
5 5 5 5 5 6 6 6 6 6 7 6 6 7 7 6 5 5 5 6 6 5 7 5 5 5 6 6 6 7 7 8 8 9 10 11 12 12 13 13 14 14 15
5 5 5 6 6 6 6 7 7 7 8 8 8 8 8 6 7 6 6 7 6 6 6 7 6 5 7 6 6 7 7 8 9 9 11 12 12 12 13 14 14 15 15
5 5 6 6 6 6 6 7 7 8 8 8 8 8 8 8 8 6 7 7 6 6 6 6 6 5 5 5 6 6 7 7 8 8 10 11 11 13 14 14 14 14 14
6 6 6 6 6 6 6 6 7 7 7 7 8 8 8 8 8 8 7 7 6 6 6 6 6 6 5 5 5 5 6 5 6 6 8 9 11 13 14 14 13 14 14
6 6 6 6 6 6 6 7 6 6 7 6 7 8 8 8 8 7 6 7 7 6 6 6 6 6 6 5 5 5 6 6 7 5 5 6 8 8 9 10 11 13 14
5 5 6 5 6 5 6 7 6 6 6 6 6 6 6 7 8 9 10 10 9 8 8 7 7 8 8 7 6 6 6 6 6 3 5 7 7 7 7 8 10 12 13
5 6 6 6 6 6 6 8 7 6 6 6 6 5 5 5 6 6 7 8 10 11 11 9 9 9 8 7 7 7 7 7 7 5 6 7 7 8 7 9 11 13 13
5 6 6 6 6 5 6 7 7 6 6 6 6 6 6 6 6 5 6 7 8 8 9 9 9 9 8 7 7 8 8 7 7 6 6 6 6 7 7 9 10 11 12
6 6 5 5 6 5 6 7 7 5 5 6 6 6 6 6 7 7 6 7 7 7 7 9 11 10 10 10 8 6 5 6 7 6 4 5 5 7 7 7 7 8 11
6 5 5 5 5 5 6 7 7 4 5 4 4 5 7 7 7 8 7 7 7 7 5 5 6 7 8 8 9 8 6 6 6 5 3 4 5 5 5 5 5 7 9
Wind_Direction
149 145 137 140 144 148 148 144 144 137 130 124 116 110 104 98 98 98 85 67 60 65 70 69 71 75 73 73 71 69 65 59 56 52 47 43 38 32 27 25 23 23 22
146 141 134 136 138 151 153 153 147 140 133 127 120 114 109 104 94 98 99 87 69 63 65 64 64 66 67 70 69 67 61 56 54 47 41 38 35 30 25 23 21 16 12
153 147 143 143 140 146 151 150 145 138 134 134 132 124 115 110 106 100 96 95 91 75 67 64 61 59 62 65 69 67 59 58 53 45 38 32 29 25 23 20 15 10 4
159 149 150 147 140 142 145 147 156 147 146 151 147 140 134 125 119 109 104 103 94 88 77 65 58 52 55 60 64 64 59 54 46 38 31 25 22 19 15 13 8 4 359
164 156 156 151 154 151 154 151 156 157 153 155 151 148 149 146 137 136 127 114 99 88 82 76 64 51 48 51 50 46 51 46 35 26 18 13 12 9 4 2 359 356 353
169 162 157 159 164 165 166 162 152 153 157 159 153 146 152 163 168 167 158 139 125 113 86 69 62 61 57 43 32 26 20 16 12 7 4 1 3 1 358 355 350 347 345
174 169 165 168 174 177 176 169 157 151 158 165 170 170 177 189 192 189 192 185 162 153 151 165 337 332 51 63 37 9 351 344 339 347 349 348 347 348 347 348 346 343 340
176 177 176 179 180 180 176 175 170 174 176 195 200 195 203 199 200 202 200 205 204 190 198 217 240 270 289 284 29 7 346 333 326 330 330 333 335 338 337 339 338 339 337
177 181 184 186 185 188 187 187 192 194 191 195 226 233 226 228 198 191 204 209 212 217 218 220 239 258 271 272 269 300 330 324 320 317 317 316 320 324 328 328 329 332 334
178 181 186 190 188 190 191 194 199 208 201 199 200 244 275 292 238 213 200 208 222 231 229 230 234 244 254 250 260 306 318 308 303 306 308 307 310 314 317 319 322 324 326
182 183 189 191 193 196 198 198 195 202 210 210 204 205 214 230 239 241 240 229 238 240 244 245 237 241 245 243 259 283 293 295 294 297 299 302 306 310 313 314 314 315 316
186 191 193 197 200 200 201 204 200 199 208 209 208 208 213 213 219 228 246 249 252 254 265 250 239 233 239 250 254 269 275 285 289 292 294 298 302 305 307 307 307 307 307
201 199 197 201 205 205 202 205 206 202 203 205 209 212 215 222 223 235 242 253 265 271 247 235 236 232 238 252 251 250 256 271 283 288 289 291 297 300 301 301 302 302 302
206 197 197 204 210 210 207 208 211 207 205 205 211 213 215 215 216 224 234 245 261 263 243 240 229 229 237 246 253 248 257 261 274 282 288 290 292 295 296 296 297 298 299
206 198 199 205 210 213 215 214 217 212 211 211 214 215 217 216 217 221 224 229 240 254 255 246 236 224 236 259 264 264 267 264 270 277 283 287 288 289 289 290 292 293 295
212 208 210 212 214 217 219 221 223 218 217 215 218 219 223 222 219 220 220 226 234 244 253 254 256 256 259 265 267 270 269 267 261 269 277 281 284 284 286 286 288 290 290
214 216 220 221 223 224 223 223 224 217 220 221 218 221 226 225 224 224 222 226 231 236 251 267 266 267 265 266 271 269 269 269 266 264 273 279 281 281 282 284 286 286 286
220 222 224 228 231 230 226 225 225 220 220 223 224 222 224 222 226 227 226 229 231 234 248 264 270 268 267 269 273 274 274 269 269 269 273 278 278 280 282 283 282 282 284
222 223 225 229 232 232 230 230 228 226 226 227 229 228 228 224 228 228 229 233 233 236 244 254 267 272 274 271 275 275 274 275 275 272 273 270 273 280 282 281 280 281 282
221 225 228 232 233 233 231 231 228 229 230 231 233 234 233 228 231 232 232 234 234 236 240 245 259 266 269 274 269 274 279 279 281 282 273 271 275 279 277 277 278 279 280
227 228 229 233 234 233 229 225 225 228 231 235 236 234 234 231 233 235 236 236 233 237 241 245 255 263 263 266 266 272 276 285 285 275 280 282 285 281 278 273 273 278 280
229 229 230 233 237 237 225 221 224 228 230 233 240 239 236 230 228 235 240 243 241 240 242 248 255 255 260 263 266 267 275 282 284 264 280 286 284 280 280 277 281 283 281
230 232 234 235 240 240 223 223 223 231 233 233 236 238 237 235 232 236 240 243 246 248 250 253 256 258 262 261 262 263 261 268 274 285 285 281 281 279 284 283 283 282 279
233 236 237 238 242 241 228 227 223 232 237 236 233 234 236 239 233 235 245 251 254 253 251 250 254 261 262 262 257 261 268 273 280 273 263 274 282 284 290 287 279 277 279
235 236 238 238 241 242 228 225 221 230 234 236 233 233 235 241 234 233 243 250 258 263 259 256 261 263 265 264 261 257 254 263 277 278 260 264 284 295 292 283 276 273 277
242 242 241 241 244 249 234 221 220 226 233 236 237 236 236 242 241 236 242 249 256 264 264 262 258 256 256 252 247 243 247 252 268 276 248 249 279 298 293 281 287 292 288
Height
1532 1533 1534 1535 1535 1536 1537 1537 1538 1539 1539 1540 1541 1541 1541 1542 1542 1542 1542 1542 1543 1543 1542 1542 1542 1541 1541 1540 1540 1539 1538 1538 1537 1536 1535 1534 1533 1533 1532 1531 1530 1530 1529
1530 1531 1532 1533 1534 1535 1536 1536 1537 1538 1538 1539 1539 1540 1540 1541 1541 1541 1542 1541 1542 1542 1542 1541 1541 1541 1540 1540 1539 1538 1538 1537 1536 1535 1534 1533 1532 1532 1531 1530 1529 1528 1527
1529 1529 1530 1531 1532 1533 1534 1535 1536 1536 1537 1538 1538 1539 1539 1539 1540 1540 1540 1540 1540 1540 1540 1540 1540 1540 1539 1539 1538 1537 1536 1536 1535 1534 1533 1532 1531 1530 1529 1529 1528 1527 1526
1527 1528 1529 1530 1531 1532 1533 1534 1534 1535 1536 1537 1537 1537 1538 1538 1538 1539 1539 1539 1539 1539 1539 1539 1539 1538 1538 1537 1537 1536 1535 1534 1534 1533 1532 1531 1530 1529 1528 1527 1526 1525 1524
1525 1526 1527 1528 1529 1530 1531 1532 1533 1534 1534 1535 1536 1536 1536 1536 1537 1537 1537 1537 1537 1537 1537 1537 1537 1537 1537 1536 1535 1535 1534 1533 1532 1532 1531 1530 1529 1527 1526 1525 1524 1523 1522
1523 1524 1525 1526 1527 1529 1530 1530 1531 1532 1533 1533 1534 1534 1534 1535 1535 1535 1536 1536 1535 1535 1536 1535 1535 1535 1535 1534 1534 1533 1533 1532 1531 1530 1529 1528 1527 1526 1524 1523 1522 1521 1520
1521 1522 1523 1525 1526 1527 1527 1529 1529 1530 1531 1532 1532 1533 1533 1533 1533 1533 1533 1534 1534 1533 1533 1533 1533 1533 1533 1532 1532 1531 1531 1530 1529 1528 1527 1526 1525 1524 1522 1521 1520 1519 1517
1519 1520 1521 1523 1524 1524 1525 1526 1528 1528 1529 1530 1530 1531 1532 1533 1530 1530 1531 1531 1531 1531 1531 1531 1531 1531 1530 1530 1529 1529 1528 1528 1527 1526 1525 1524 1523 1522 1520 1519 1518 1516 1515
1517 1518 1519 1520 1521 1522 1523 1524 1525 1526 1526 1527 1528 1529 1530 1530 1530 1529 1528 1529 1529 1529 1528 1528 1528 1528 1528 1527 1527 1526 1525 1525 1524 1523 1522 1521 1520 1519 1518 1516 1515 1513 1512
1514 1516 1517 1518 1518 1519 1520 1521 1522 1523 1524 1524 1525 1525 1526 1526 1527 1527 1527 1526 1526 1526 1526 1525 1525 1525 1525 1524 1524 1523 1522 1522 1521 1520 1519 1518 1517 1516 1515 1514 1512 1510 1509
1512 1513 1514 1515 1516 1516 1517 1518 1519 1520 1521 1521 1522 1522 1523 1523 1524 1524 1524 1524 1523 1523 1522 1522 1522 1522 1521 1521 1520 1520 1519 1518 1518 1517 1516 1515 1514 1513 1511 1510 1508 1507 1505
1509 1510 1511 1512 1513 1513 1514 1515 1516 1516 1517 1518 1519 1520 1520 1520 1520 1520 1520 1520 1520 1519 1519 1519 1519 1518 1518 1517 1517 1516 1515 1515 1514 1513 1512 1511 1510 1508 1507 1506 1504 1503 1501
1506 1507 1508 1508 1509 1510 1511 1512 1512 1513 1514 1514 1515 1516 1516 1516 1517 1517 1517 1517 1516 1515 1515 1515 1515 1515 1514 1514 1513 1513 1512 1511 1510 1509 1508 1507 1505 1504 1503 1501 1499 1498 1497
1503 1504 1504 1505 1506 1507 1507 1508 1509 1509 1510 1510 1511 1512 1513 1513 1513 1514 1514 1514 1513 1513 1512 1511 1511 1510 1510 1510 1509 1508 1507 1506 1505 1504 1503 1502 1501 1499 1498 1496 1495 1493 1491
1500 1501 1501 1502 1502 1503 1504 1504 1505 1505 1506 1507 1508 1508 1509 1509 1510 1510 1510 1511 1511 1510 1509 1508 1507 1506 1506 1505 1505 1504 1503 1502 1501 1499 1498 1497 1496 1494 1493 1491 1490 1488 1486
1497 1498 1498 1499 1499 1500 1500 1500 1501 1502 1502 1503 1504 1504 1505 1505 1505 1506 1506 1506 1506 1506 1504 1503 1503 1503 1502 1501 1500 1499 1498 1497 1496 1494 1493 1492 1490 1489 1487 1486 1484 1483 1481
1494 1495 1495 1495 1495 1496 1496 1496 1497 1497 1498 1499 1499 1500 1500 1501 1501 1501 1501 1502 1501 1501 1499 1498 1498 1498 1497 1496 1495 1494 1493 1491 1490 1489 1488 1486 1485 1483 1482 1480 1478 1477 1475
1491 1491 1491 1491 1491 1491 1492 1492 1492 1493 1493 1494 1494 1494 1495 1496 1496 1496 1496 1496 1496 1496 1495 1493 1493 1492 1492 1491 1490 1489 1488 1486 1485 1483 1482 1480 1479 1477 1476 1474 1473 1471 1470
1487 1488 1487 1487 1487 1487 1487 1487 1487 1488 1488 1488 1489 1489 1490 1490 1490 1491 1491 1491 1491 1490 1490 1489 1487 1487 1486 1486 1485 1483 1482 1481 1479 1478 1476 1475 1473 1472 1470 1468 1466 1465 1464
1483 1483 1483 1482 1482 1482 1482 1482 1482 1482 1483 1483 1483 1484 1484 1484 1484 1485 1485 1485 1485 1485 1485 1484 1482 1481 1481 1480 1479 1478 1476 1475 1474 1472 1471 1469 1468 1466 1464 1462 1461 1459 1458
1479 1479 1479 1478 1478 1478 1477 1477 1476 1477 1477 1477 1478 1478 1478 1479 1479 1480 1480 1480 1480 1479 1479 1478 1477 1476 1476 1475 1474 1473 1471 1470 1468 1467 1465 1464 1462 1460 1458 1456 1454 1453 1452
1475 1475 1474 1474 1474 1473 1473 1472 1472 1472 1472 1472 1472 1472 1473 1473 1473 1474 1474 1474 1475 1474 1474 1473 1472 1471 1470 1470 1469 1468 1466 1465 1462 1462 1460 1458 1457 1454 1453 1451 1449 1447 1446
1471 1471 1470 1470 1469 1468 1468 1467 1467 1467 1467 1467 1467 1467 1467 1468 1468 1468 1468 1468 1468 1468 1468 1468 1467 1466 1465 1464 1464 1462 1461 1460 1458 1456 1454 1451 1451 1449 1447 1445 1444 1442 1440
1467 1466 1466 1465 1465 1464 1463 1463 1462 1462 1462 1462 1463 1463 1462 1462 1463 1463 1463 1462 1462 1462 1462 1462 1461 1460 1460 1459 1458 1457 1456 1454 1452 1450 1449 1447 1445 1443 1441 1440 1438 1436 1434
1462 1462 1461 1461 1460 1459 1459 1458 1458 1458 1458 1458 1458 1458 1458 1458 1458 1457 1457 1457 1456 1456 1456 1455 1455 1454 1454 1453 1452 1451 1450 1448 1446 1445 1444 1442 1440 1437 1435 1434 1432 1431 1429
1458 1457 1456 1456 1455 1454 1454 1454 1454 1453 1453 1453 1453 1453 1453 1453 1453 1453 1453 1452 1451 1451 1451 1450 1449 1448 1448 1447 1447 1446 1445 1443 1441 1440 1438 1437 1435 1433 1430 1428 1427 1426 1423